DECAYED
Showing default

LEMUR 2 GUSTAVO, 43885 (Decayed)

Orbit data source: Space-Track

LEMUR 2 GUSTAVO, 43885 was a payload satellite owned by Spire/Lux (US) in LEO that was launched on Thu, 27 Dec 2018 UTC via a SOYUZ-2-1A launch vehicle from the Vostochny Cosmodrome (VOSTO). Payload-class satellites include a variety of spacecraft equipped with specific instruments for various scientific and technological missions. These include communications satellites like Starlink; space stations such as the ISS; scientific satellites like the Hubble; Earth observation satellites from companies like Planet Labs, Umbra, and HawkEye 360; GPS; miniature CubeSats for education and research; and military/defense satellites.

Not visible in the next 10 days
Identifier
43885, 2018-111K
Orbit
Decayed
Country
Flag of USUS
Related business
Manufacturer
Spire/Glasgow
Mission
Decayed Commercial Com/MetRO
Bus & Motor
CUBESAT 3U, Unknown motor
Mass
4.6 kg wet, 4.6 kg dry
Launch date (UTC)
2018-12-27 (7 years ago)
Launch vehicle
SOYUZ-2-1A
Launch site
Vostochny Cosmodrome (VOSTO)
Object type
Payload
Rocket body
Debris
Shape & HBR
Box + 2 Pan, 0.5 m
Radar Cross Section
0.124 m², Small (<0.1 m²)

Expand to show TLE details & history
Last TLE update: 6 months ago

TLE from 6 months ago
0 LEMUR 2 GUSTAVO
1 43885U 18111K   25111.81544236  .04878738  26037-5  15565-2 0  9995
2 43885  97.5866  43.2261 0009227 189.6126 170.4991 16.26230804347302
Epoch: 2025-04-21T19:34Z
TLE epoch observation values (Epoch: 2025-04-21T19:34:14.219Z)
Latitude
-0.00001°
Longitude
-100.45766°
Altitude
211.907 km
Speed
7.776 km/s
True Right ascension
02h 52m 54s
True Declination
0° 00' 00"
Sunlit
Object was in daylight at epoch
Visualization orbit readout
Latitude
Unknown
Longitude
Unknown
Altitude
Unknown
Speed
Unknown
Apparent Right ascension
Unknown
Apparent Declination
Unknown
Sunlit
N/A
Visualization observer readout
Local Sidereal Time
10:38:01
Azimuth
Unknown
Elevation
Unknown
Doppler factor
Unknown
Orbital elements
Apogee altitude
205.592 km
Perigee altitude
193.453 km
Semi-major axis
6,577.66 km
Eccentricity
0.00092
Inclination
97.5866°
RAAN
43.2261°
Arg. of periapsis
189.6126°
True anomaly
170.51653°
Mean anomaly
170.4991°
Eccentric anomaly
170.50782°
Mean motion
4.06852 °/min
Orbital period
88.48 mins
BSTAR
0.0015565
Loading maneuver chart data...
Computing Atmospheric mass density...

Documentation

Showing up to 5 results
|